Location: Cold Norton
(51.6667°N, 0.6667°E)
Time: 06:52:54
(UTC+00:00)

Cosmos 304 Rocket - Pass Details

Date: 18 November 2025
Orbit: 668 x 677 km, 74.0° (Epoch: 12 December)

Event Time Altitude Azimuth Distance (km) Brightness Sun altitude
Rises 18:41:35 0° 205° (SSW) 3,004 7.4 -24.2°
Reaches altitude 10° 18:43:51 10° 206° (SSW) 2,096 6.6 -24.5°
Maximum altitude 18:48:35 85° 295° (WNW) 682 3.6 -25.3°
Enters shadow 18:48:47 81° 349° (N) 688 3.6 -25.3°
